{"data":{"norad_id":43909,"epoch":"2026-09-20T04:58:27.265728Z","epoch_age_seconds":83575,"freshness":"FRESH","line1":"1 43909U 18112A   26263.20726002  .00000063  00000+0  88172-4 0  9994","line2":"2 43909  50.0115   0.8442 0000465 186.7076 173.3833 14.29053319404673","mean_motion":14.29053319,"eccentricity":4.65e-5,"inclination_deg":50.0115,"raan_deg":0.8442,"arg_perigee_deg":186.7076,"mean_anomaly_deg":173.3833,"bstar":8.8172e-5,"rev_number":40467,"period_min":100.76600927722,"perigee_km":794.56339860261,"apogee_km":795.23049075946,"semimajor_km":7173.033944681,"source":"CELESTRAK","updated_at":"2026-09-20T09:00:14.416490Z"}}